Regional Weather Roundup
Issued by NWS Little Rock, AR

Home | Current Version | Previous Version | Text Only | Print | Product List | Glossary On
Versions: 1 2 3 4 5 6 7 8 9 10 11 12 13 14 15 16 17 18 19 20 21 22 23 24 25 26 27 28 29 30 31 32 33 34 35 36 37 38 39 40 41 42 43 44 45 46 47 48 49 50
000
ASUS44 KLZK 291110
RWRLZK
ARKANSAS STATE WEATHER ROUNDUP
NATIONAL WEATHER SERVICE LITTLE ROCK AR
ISSUED BY NATIONAL WEATHER SERVICE MEMPHIS TN
500 AM CST MON DEC 29 2014

NOTE: "FAIR" INDICATES FEW OR NO CLOUDS BELOW 12,000 FEET WITH NO
SIGNIFICANT WEATHER AND/OR OBSTRUCTIONS TO VISIBILITY.

ARZ001-003-010-029-291200-
NORTHWEST ARKANSAS

CITY           SKY/WX    TMP DP  RH WIND       PRES   REMARKS
FORT SMITH     PTCLDY    29  27  92 NE3       30.19S
HARRISON       CLEAR     20  18  92 CALM      30.18R
BENTONVILLE    MOCLDY    27  25  93 E3        30.16F
ROGERS         PTCLDY    26  25  96 E7        30.16F WCI  18
SILOAM SPGS    MOCLDY    27  19  74 E3        30.17F
HIGHFILL       MOCLDY    24  21  88 CALM      30.16S
$$

ARZ004-005-016-291200-
NORTH CENTRAL ARKANSAS

CITY           SKY/WX    TMP DP  RH WIND       PRES   REMARKS
BATESVILLE     CLOUDY    34  27  75 N5        30.21S WCI  30
FLIPPIN        CLOUDY    23  18  80 CALM      30.20S
MTN HOME       PTCLDY    24  23  96 CALM      30.19R
$$

ARZ040-041-291200-
WEST CENTRAL ARKANSAS

CITY           SKY/WX    TMP DP  RH WIND       PRES   REMARKS
MOUNT IDA      FOG       29  28  96 CALM      30.14S VSB 1/2
$$

ARZ017-025-026-028-291200-
NORTHEAST ARKANSAS

CITY           SKY/WX    TMP DP  RH WIND       PRES   REMARKS
JONESBORO      CLOUDY    34  29  82 NE7       30.21S WCI  28
NEWPORT        CLOUDY    34  30  85 N13       30.22S WCI  25
WALNUT RIDGE   CLOUDY    32  25  74 N7        30.21S WCI  26
BLYTHEVILLE    CLOUDY    35  31  85 N14       30.20S WCI  26
$$

ARZ022-033-042-044-291200-
CENTRAL ARKANSAS

CITY           SKY/WX    TMP DP  RH WIND       PRES   REMARKS
LITTLE ROCK    CLOUDY    37  31  78 NE6       30.20S WCI  32
JACKSONVILLE   CLOUDY    35  29  81 N7        30.20R WCI  29
SEARCY         CLOUDY    34  29  82 NE7       30.22S WCI  28
HOT SPRINGS    FOG       27  26  96 CALM      30.18R VSB 1/4
RUSSELLVILLE   PTCLDY    25  22  88 CALM      30.19F
$$

ARZ036-291200-
EAST ARKANSAS

CITY           SKY/WX    TMP DP  RH WIND       PRES   REMARKS
WEST MEMPHIS   CLOUDY    36  35  96 N7        30.18R WCI  30
$$

ARZ050-070-073-291200-
SOUTHWEST ARKANSAS

CITY           SKY/WX    TMP DP  RH WIND       PRES   REMARKS
TEXARKANA      CLOUDY    38  36  92 NE6       30.16S WCI  33
EL DORADO      CLOUDY    39  37  92 N3        30.17R FOG
DEQUEEN        CLOUDY    33  32  96 CALM      30.16S
$$

ARZ056-057-069-291200-
SOUTHEAST ARKANSAS

CITY           SKY/WX    TMP DP  RH WIND       PRES   REMARKS
PINE BLUFF     CLOUDY    38  34  85 N9        30.19R WCI  31
STUTTGART      CLOUDY    37  30  75 N10       30.19S WCI  30
MONTICELLO     CLOUDY    39  37  92 VRB3      30.16S FOG
$$



USA.gov is the U.S. government's official web portal to all federal, state and local government web resources and services.